Regional Weather Roundup
Issued by NWS

Home | Current Version | Previous Version | Text Only | Print | Product List | Glossary On
Versions: 1 2 3 4 5 6 7 8 9 10 11 12 13 14 15 16 17 18 19 20 21 22 23 24 25 26 27 28 29 30 31 32 33 34 35 36 37 38 39 40 41 42 43 44 45 46 47 48 49 50
973
ASUS46 KPQR 220010
RWROR

OREGON REGIONAL WEATHER ROUNDUP
NATIONAL WEATHER SERVICE PORTLAND OR
400 PM PST SAT JAN 21 2017

NOTE: "FAIR" INDICATES FEW OR NO CLOUDS BELOW 12,000 FEET WITH
NO SIGNIFICANT WEATHER AND/OR OBSTRUCTIONS TO VISIBILITY.

ORZ001>013-220100-
NORTHWEST OREGON


CITY           SKY/WX    TMP DP  RH WIND       PRES   REMARKS
ASTORIA        LGT RAIN  48  42  80 CALM      29.44R
6HR MIN TEMP:  47; 6HR MAX TEMP:  49; 6HR PCP:  0.05;

NEWPORT        MOCLDY    48  45  87 SW18G29   29.53R FOG
PORTLAND       LGT RAIN  41  41 100 E12       29.49R
6HR MIN TEMP:  40; 6HR MAX TEMP:  42; 6HR PCP:  0.28;

VANCOUVER WA   LGT RAIN  42  39  89 E5        29.49R
6HR MIN TEMP:  40; 6HR MAX TEMP:  42; 6HR PCP:  0.27;

SCAPPOOSE      CLOUDY    42  42 100 CALM      29.49R FOG
6HR MIN TEMP:  40; 6HR MAX TEMP:  42; 6HR PCP:  0.43;

HILLSBORO      CLOUDY    46  44  93 S9        29.47R
6HR MIN TEMP:  43; 6HR MAX TEMP:  47; 6HR PCP:  0.16;

AURORA         MOCLDY    48  43  82 S20G28    29.50R
6HR MIN TEMP:  45; 6HR MAX TEMP:  50; 6HR PCP:  0.14;

MCMINNVILLE    PTCLDY    49  43  80 S13       29.49R
6HR MIN TEMP:  43; 6HR MAX TEMP:  50; 6HR PCP:  0.11;

SALEM          LGT RAIN  47  42  83 S16       29.50R
6HR MIN TEMP:  44; 6HR MAX TEMP:  49; 6HR PCP:  0.11;

CORVALLIS        N/A     48  45  87 S21       29.51R
EUGENE         LGT RAIN  46  44  93 S13       29.57R
6HR MIN TEMP:  44; 6HR MAX TEMP:  47; 6HR PCP:  0.10;

$$

ORZ021-028-220100-
SOUTHWEST OREGON


CITY           SKY/WX    TMP DP  RH WIND       PRES   REMARKS
NORTH BEND     CLOUDY    50  46  87 S8        29.59R
6HR MIN TEMP:  46; 6HR MAX TEMP:  54; 6HR PCP:  0.05;

BROOKINGS      RAIN      46  45  93 SE16G28   29.65S FOG
ROSEBURG       CLOUDY    50  40  68 S7        29.61R
6HR MIN TEMP:  45; 6HR MAX TEMP:  50; 6HR PCP:  0.19;

SEXTON SUMMIT  FOG       32  32 100 S17G28    29.55R VSB<1/4 WCI  21
6HR MIN TEMP:  32; 6HR MAX TEMP:  33; 6HR PCP:  0.47;

MEDFORD        MOSUNNY   50  40  68 N7        29.62R
6HR MIN TEMP:  43; 6HR MAX TEMP:  51; 6HR PCP:  0.05;

$$

ORZ014>016-041-220100-
COLUMBIA GORGE


CITY           SKY/WX    TMP DP  RH WIND       PRES   REMARKS
TROUTDALE      CLOUDY    42  38  85 E9        29.50R
6HR MIN TEMP:  40; 6HR MAX TEMP:  43; 6HR PCP:  0.21;

THE DALLES     CLOUDY    37  34  89 CALM      29.56R
6HR MIN TEMP:  33; 6HR MAX TEMP:  37; 6HR PCP:  0.02;

$$

ORZ029>031-041-044-049-050-061>064-502-503-505>511-220100-
EASTERN OREGON


CITY           SKY/WX    TMP DP  RH WIND       PRES   REMARKS
REDMOND        MOCLDY    40  29  64 SW17G26   29.51R WCI  31
6HR MIN TEMP:  34; 6HR MAX TEMP:  41; 6HR PCP: TRACE;

BEND           MOCLDY    39  30  70 SW8G16    29.50S WCI  34
PRINEVILLE     MOCLDY    41  28  60 SW15G25   29.53R
KLAMATH FALLS  MOCLDY    39  26  59 SW12      29.62R WCI  32
6HR MIN TEMP:  34; 6HR MAX TEMP:  40; 6HR PCP: TRACE;

LAKEVIEW       CLOUDY    36  27  69 S15       29.66R WCI  26
HERMISTON      CLOUDY    35  34  96 E8        29.56F FOG     WCI  29
6HR MIN TEMP:  32; 6HR MAX TEMP:  40; 6HR PCP: TRACE;

PENDLETON      CLOUDY    37  34  89 N6        29.54R WCI  32
6HR MIN TEMP:  33; 6HR MAX TEMP:  44; 6HR PCP: TRACE;

JOHN DAY       CLOUDY    39  30  69 S21G28    29.57R WCI  29
MEACHAM        LGT SNOW  34  28  79 CALM      29.54R
6HR MIN TEMP:  34; 6HR MAX TEMP:  40; 6HR PCP:  0.01;

LA GRANDE      CLOUDY    37  28  70 S23       29.59R WCI  26
6HR MIN TEMP:  36; 6HR MAX TEMP:  39;

BAKER CITY     MOCLDY    34  28  79 SE18      29.60R WCI  23
6HR MIN TEMP:  31; 6HR MAX TEMP:  35;

BURNS          MOCLDY    30  25  81 NE9       29.62R WCI  22
6HR MIN TEMP:  19; 6HR MAX TEMP:  31; 6HR PCP: TRACE;

ROME             N/A     38  27  64 S12       29.64R WCI  30
6HR MIN TEMP:  38; 6HR MAX TEMP:  42;

ONTARIO        LGT RAIN  36  33  89 N3        29.73R
6HR MIN TEMP:  34; 6HR MAX TEMP:  37; 6HR PCP: TRACE;

$$




USA.gov is the U.S. government's official web portal to all federal, state and local government web resources and services.